Weather in Lysogorskaya

Russia / Stavropol Krai     44°06′17″N   43°16′28″E
temp.,
°C
wind,
m/s
gust,
m/s
humid.,
%
clouds,
%
prec.,
mm/h
press.,
hPa
HPBL,
m
17 april, sat
sat1700:00+11w1185100 0.0 101810
03:00+11s1181100 0.0 101810
06:00+11nw2376100 0.0 101860
09:00+13nw6875100 0.0 1020795
12:00+11nnw5680100 0.1 1022756
15:00+11n3380100 0.3 1022588
18:00+9nnw3384100 0.2 1023315
21:00+9n1186100 0.4 1023146
18 april, sun
sun1800:00+9se1187100 0.0 102298
03:00+8ese2491100 0.0 1021180
06:00+8se3792100 0.0 1020383
09:00+10se3588100 0.0 1019588
12:00+12se578395 0.4 1017585
15:00+15ese4474100 1.0 1016730
18:00+13e358770 2.0 1017362
21:00+11sw129597 3.8 101880
19 april, mon
mon1900:00+10s2293100 0.5 101722
03:00+11s2288100 0.5 101624
06:00+12w1181100 0.0 101611
09:00+16nne2272100 0.0 1017401
12:00+19e5561100 0.1 10151387
15:00+18e5662100 0.1 10141266
18:00+17ne3671100 0.1 1015200
21:00+13se259259 0.1 1016316
20 april, tue
tue2000:00+12sse398470 0.0 1014241
03:00+11se3786100 0.0 1011136
06:00+11se31085100 0.0 1009232
09:00+15se51070100 0.0 1006319
12:00+19ese6860100 0.0 1005472
15:00+21ese3457100 0.0 1004556
18:00+18nnw3371100 0.0 100647
21:00+15nw5891100 0.1 1010341
21 april, wed
wed2100:00+12nw5971100 0.3 1013623
03:00+12s1174100 0.3 101570
06:00+11ese3780100 0.1 1017356
09:00+11ese5881100 0.2 1019576
12:00+11e5675100 0.0 1020828
15:00+10e568299 0.1 1020650
18:00+10ene3483100 0.0 1022452
21:00+9ese1282100 0.0 1023176